This is the latest recevied weather packets stored in our database for station/object WB3EGK. If no packets are shown the sender has not sent any weather packets the latest 10 day(s).
| Time | Temp. | Humidity | Pressure | Rain* | Wind** | Luminosity | Snow |
|---|---|---|---|---|---|---|---|
| 1778174966 | 12.78° C | 1% | 1008.7 hPa | 0 mm | - | 357 W/m² | - |
| 1778174663 | 12.78° C | 1% | 1008.8 hPa | 0 mm | - | 354 W/m² | - |
| 1778174359 | 12.78° C | 1% | 1008.9 hPa | 0 mm | - | 628 W/m² | - |
| 1778174055 | 12.78° C | 1% | 1009 hPa | 0 mm | - | 344 W/m² | - |
| 1778173753 | 12.22° C | 1% | 1009.1 hPa | 0 mm | - | 950 W/m² | - |
| 1778173449 | 11.67° C | 1% | 1009.1 hPa | 0 mm | - | 956 W/m² | - |
| 1778173145 | 11.67° C | 1% | 1009 hPa | 0 mm | - | 245 W/m² | - |
| 1778172841 | 11.67° C | 1% | 1009.1 hPa | 0 mm | - | 213 W/m² | - |
| 1778172537 | 12.22° C | 1% | 1009.4 hPa | 0 mm | - | 241 W/m² | - |
| 1778172234 | 12.78° C | 1% | 1008.8 hPa | 0 mm | - | 337 W/m² | - |
| 1778171932 | 12.78° C | 1% | 1009 hPa | 0 mm | - | 433 W/m² | - |
| 1778171629 | 13.33° C | 1% | 1009.1 hPa | 0 mm | - | 991 W/m² | - |
| 1778171325 | 12.78° C | 1% | 1009.3 hPa | 0 mm | - | 972 W/m² | - |
| 1778171021 | 12.22° C | 1% | 1009.1 hPa | 0 mm | - | 262 W/m² | - |
| 1778170718 | 11.67° C | 1% | 1009.4 hPa | 0 mm | - | 913 W/m² | - |
| 1778170415 | 11.67° C | 1% | 1009.4 hPa | 0 mm | - | 271 W/m² | - |
| 1778170111 | 11.67° C | 1% | 1009.4 hPa | 0 mm | - | 252 W/m² | - |
| 1778169807 | 11.11° C | 1% | 1009.6 hPa | 0 mm | - | 750 W/m² | - |
| 1778169503 | 11.11° C | 1% | 1009.4 hPa | 0 mm | - | 243 W/m² | - |
| 1778169200 | 12.22° C | 1% | 1009.4 hPa | 0 mm | - | 288 W/m² | - |
| 1778168896 | 11.67° C | 1% | 1009.6 hPa | 0 mm | - | 855 W/m² | - |
| 1778168594 | 11.67° C | 1% | 1009.3 hPa | 0 mm | - | 811 W/m² | - |
| 1778168290 | 12.22° C | 1% | 1009.6 hPa | 0 mm | - | 368 W/m² | - |
| 1778167987 | 11.67° C | 1% | 1009.6 hPa | 0 mm | - | 944 W/m² | - |
| 1778167683 | 11.67° C | 1% | 1009.6 hPa | 0 mm | - | 919 W/m² | - |
* Rain latest hour (hover to see other rain measurements)
** Current wind speed in m/s (hover to see current wind gust speed)